﻿_id,日時,平均風速(m/s),平均風向,最大瞬間風速(m/s),最大風速時風向,気温(℃),湿度(%),10分間移動積算雨量(mm),1時間移動積算雨量(mm),日雨量(mm),累計雨量(mm),日射(日積算)(MJ/m2),日照(日積算)(min),現地気圧(hPa),海面気圧(hPa)
1,2019-12-16T00:00:00,0.4,北北西,1,西,2.2,83.4,0,0,0,0,7.05,193,1014.6,1029.3
2,2019-12-16T00:01:00,0.4,北西,1,西,2.2,83.6,0,0,0,0,0,0,1014.6,1029.3
3,2019-12-16T00:02:00,0.4,北西,1,西,2.1,83.7,0,0,0,0,0,0,1014.6,1029.3
4,2019-12-16T00:03:00,0.3,北西,1,西,2.1,83.7,0,0,0,0,0,0,1014.6,1029.3
5,2019-12-16T00:04:00,0.4,北北西,1,西,2,83.9,0,0,0,0,0,0,1014.6,1029.3
6,2019-12-16T00:05:00,0.4,北,1,西,2.1,84.5,0,0,0,0,0,0,1014.6,1029.3
7,2019-12-16T00:06:00,0.3,北,1,西,2.2,85.3,0,0,0,0,0,0,1014.6,1029.3
8,2019-12-16T00:07:00,0.4,北北東,1,西,2.3,85.4,0,0,0,0,0,0,1014.5,1029.2
9,2019-12-16T00:08:00,0.4,東北東,1,西,2.4,85.6,0,0,0,0,0,0,1014.5,1029.2
10,2019-12-16T00:09:00,0.4,東北東,1,西,2.4,85.1,0,0,0,0,0,0,1014.5,1029.2
11,2019-12-16T00:10:00,0.3,東北東,0.8,西,2.4,85.1,0,0,0,0,0,0,1014.5,1029.2
12,2019-12-16T00:11:00,0.3,東北東,0.8,西,2.3,84.7,0,0,0,0,0,0,1014.6,1029.3
13,2019-12-16T00:12:00,0.2,静穏,0.6,東北東,2.3,84.6,0,0,0,0,0,0,1014.5,1029.2
14,2019-12-16T00:13:00,0.3,東北東,0.7,北西,2.3,84.4,0,0,0,0,0,0,1014.5,1029.2
15,2019-12-16T00:14:00,0.3,北東,0.8,西北西,2.2,84.4,0,0,0,0,0,0,1014.5,1029.2
16,2019-12-16T00:15:00,0.3,北北東,0.8,西北西,2,84.2,0,0,0,0,0,0,1014.5,1029.2
17,2019-12-16T00:16:00,0.3,北,0.8,西北西,2,83.9,0,0,0,0,0,0,1014.5,1029.2
18,2019-12-16T00:17:00,0.3,北北西,0.8,西北西,2.1,84.5,0,0,0,0,0,0,1014.5,1029.2
19,2019-12-16T00:18:00,0.4,北北西,0.8,西北西,2,84.9,0,0,0,0,0,0,1014.4,1029.1
20,2019-12-16T00:19:00,0.4,北西,0.8,西北西,2.1,84.9,0,0,0,0,0,0,1014.5,1029.2
21,2019-12-16T00:20:00,0.4,北西,0.8,西北西,2,85.4,0,0,0,0,0,0,1014.5,1029.2
22,2019-12-16T00:21:00,0.5,北西,0.8,西北西,1.9,84.9,0,0,0,0,0,0,1014.5,1029.2
23,2019-12-16T00:22:00,0.5,北西,0.8,西北西,2,85.1,0,0,0,0,0,0,1014.5,1029.2
24,2019-12-16T00:23:00,0.5,北西,0.8,西北西,2,85.4,0,0,0,0,0,0,1014.5,1029.2
25,2019-12-16T00:24:00,0.5,北西,1,西,2.1,85.5,0,0,0,0,0,0,1014.5,1029.2
26,2019-12-16T00:25:00,0.5,北西,1.3,西,2.1,85.3,0,0,0,0,0,0,1014.5,1029.2
27,2019-12-16T00:26:00,0.6,北西,1.3,西,2.1,85.4,0,0,0,0,0,0,1014.5,1029.2
28,2019-12-16T00:27:00,0.6,北西,1.3,西,2.1,85.1,0,0,0,0,0,0,1014.5,1029.2
29,2019-12-16T00:28:00,0.6,西北西,1.3,西,2.1,85.1,0,0,0,0,0,0,1014.5,1029.2
30,2019-12-16T00:29:00,0.6,西北西,1.3,西,2.2,85.4,0,0,0,0,0,0,1014.5,1029.2
31,2019-12-16T00:30:00,0.7,西北西,1.3,西,2.2,85.5,0,0,0,0,0,0,1014.5,1029.2
32,2019-12-16T00:31:00,0.7,西北西,1.3,西,2.4,85.8,0,0,0,0,0,0,1014.5,1029.2
33,2019-12-16T00:32:00,0.7,西北西,1.3,西,2.5,85.8,0,0,0,0,0,0,1014.5,1029.2
34,2019-12-16T00:33:00,0.8,西北西,1.3,西,2.4,85.1,0,0,0,0,0,0,1014.5,1029.2
35,2019-12-16T00:34:00,0.8,西北西,1.3,西,2.4,84.9,0,0,0,0,0,0,1014.5,1029.2
36,2019-12-16T00:35:00,0.7,西北西,1.3,西,2.4,84.4,0,0,0,0,0,0,1014.5,1029.2
37,2019-12-16T00:36:00,0.7,西北西,1.1,西北西,2.4,84.6,0,0,0,0,0,0,1014.5,1029.2
38,2019-12-16T00:37:00,0.7,西北西,1.1,西北西,2.3,84.4,0,0,0,0,0,0,1014.5,1029.2
39,2019-12-16T00:38:00,0.7,西北西,1.1,西北西,2.2,84.2,0,0,0,0,0,0,1014.5,1029.2
40,2019-12-16T00:39:00,0.7,西北西,1.1,西北西,2,83.6,0,0,0,0,0,0,1014.5,1029.2
41,2019-12-16T00:40:00,0.7,西北西,1.1,西北西,2,84,0,0,0,0,0,0,1014.5,1029.2
42,2019-12-16T00:41:00,0.6,西北西,1.1,西北西,1.9,84.1,0,0,0,0,0,0,1014.5,1029.2
43,2019-12-16T00:42:00,0.6,西北西,1.1,西北西,1.8,83.9,0,0,0,0,0,0,1014.5,1029.2
44,2019-12-16T00:43:00,0.5,西北西,1.1,西北西,1.8,84.3,0,0,0,0,0,0,1014.5,1029.2
45,2019-12-16T00:44:00,0.5,西北西,1.1,西北西,2,85,0,0,0,0,0,0,1014.5,1029.2
46,2019-12-16T00:45:00,0.4,西北西,1.1,西北西,1.8,85.2,0,0,0,0,0,0,1014.5,1029.2
47,2019-12-16T00:46:00,0.3,西北西,0.8,西,1.7,84.9,0,0,0,0,0,0,1014.5,1029.2
48,2019-12-16T00:47:00,0.3,西北西,0.8,西,1.9,85.5,0,0,0,0,0,0,1014.5,1029.2
49,2019-12-16T00:48:00,0.3,西北西,0.7,西北西,1.8,86,0,0,0,0,0,0,1014.5,1029.2
50,2019-12-16T00:49:00,0.2,静穏,0.6,西北西,1.8,85.9,0,0,0,0,0,0,1014.5,1029.2
51,2019-12-16T00:50:00,0.2,静穏,0.6,西北西,1.9,86.1,0,0,0,0,0,0,1014.5,1029.2
52,2019-12-16T00:51:00,0.2,静穏,0.8,北西,2.1,86.9,0,0,0,0,0,0,1014.5,1029.2
53,2019-12-16T00:52:00,0.2,静穏,0.8,北西,2,86.6,0,0,0,0,0,0,1014.5,1029.2
54,2019-12-16T00:53:00,0.3,北西,0.8,北西,1.9,85.9,0,0,0,0,0,0,1014.4,1029.1
55,2019-12-16T00:54:00,0.4,北西,0.8,北西,1.8,85.5,0,0,0,0,0,0,1014.4,1029.1
56,2019-12-16T00:55:00,0.4,北西,0.8,北西,1.7,85.3,0,0,0,0,0,0,1014.4,1029.1
57,2019-12-16T00:56:00,0.3,北西,0.8,北西,1.6,85,0,0,0,0,0,0,1014.4,1029.1
58,2019-12-16T00:57:00,0.3,北北西,0.8,北西,1.7,85.5,0,0,0,0,0,0,1014.5,1029.2
59,2019-12-16T00:58:00,0.3,北北西,0.8,北西,1.9,86.6,0,0,0,0,0,0,1014.4,1029.1
60,2019-12-16T00:59:00,0.3,北北西,0.8,北西,1.9,86.6,0,0,0,0,0,0,1014.4,1029.1
61,2019-12-16T01:00:00,0.3,北,0.8,北西,1.9,86.6,0,0,0,0,0,0,1014.4,1029.1
62,2019-12-16T01:01:00,0.3,北北西,0.8,西,1.9,86.7,0,0,0,0,0,0,1014.4,1029.1
63,2019-12-16T01:02:00,0.2,静穏,0.8,西,1.7,85.9,0,0,0,0,0,0,1014.4,1029.1
64,2019-12-16T01:03:00,0.2,静穏,0.7,南,1.8,86.4,0,0,0,0,0,0,1014.4,1029.1
65,2019-12-16T01:04:00,0.1,静穏,0.7,南,1.9,86.6,0,0,0,0,0,0,1014.4,1029.1
66,2019-12-16T01:05:00,0.1,静穏,0.8,南西,1.8,86.4,0,0,0,0,0,0,1014.4,1029.1
67,2019-12-16T01:06:00,0.1,静穏,0.8,南西,1.7,86.2,0,0,0,0,0,0,1014.4,1029.1
68,2019-12-16T01:07:00,0.1,静穏,0.8,南西,1.7,85.8,0,0,0,0,0,0,1014.4,1029.1
69,2019-12-16T01:08:00,0.2,静穏,0.8,南西,1.7,86.6,0,0,0,0,0,0,1014.4,1029.1
70,2019-12-16T01:09:00,0.2,静穏,0.8,南西,1.7,86.2,0,0,0,0,0,0,1014.5,1029.2
71,2019-12-16T01:10:00,0.2,静穏,0.8,南西,1.6,86.5,0,0,0,0,0,0,1014.4,1029.1
72,2019-12-16T01:11:00,0.2,静穏,0.8,南西,1.6,86.2,0,0,0,0,0,0,1014.4,1029.1
73,2019-12-16T01:12:00,0.2,静穏,0.8,南西,1.6,86.4,0,0,0,0,0,0,1014.4,1029.1
74,2019-12-16T01:13:00,0.2,静穏,0.8,南西,1.6,86.6,0,0,0,0,0,0,1014.4,1029.1
75,2019-12-16T01:14:00,0.3,南南東,0.8,南西,1.6,86.9,0,0,0,0,0,0,1014.4,1029.1
76,2019-12-16T01:15:00,0.3,南南東,0.7,南,1.7,87.3,0,0,0,0,0,0,1014.4,1029.1
77,2019-12-16T01:16:00,0.3,南南東,1.1,南南西,1.7,87.4,0,0,0,0,0,0,1014.4,1029.1
78,2019-12-16T01:17:00,0.3,南南東,1.1,南南西,1.6,87.3,0,0,0,0,0,0,1014.4,1029.1
79,2019-12-16T01:18:00,0.4,南南東,1.1,南南西,1.5,86.7,0,0,0,0,0,0,1014.4,1029.1
80,2019-12-16T01:19:00,0.5,南南東,1.3,南南西,1.6,86.7,0,0,0,0,0,0,1014.5,1029.2
81,2019-12-16T01:20:00,0.6,南,1.3,南南西,1.5,87,0,0,0,0,0,0,1014.5,1029.2
82,2019-12-16T01:21:00,0.6,南,1.6,南南西,1.3,86.3,0,0,0,0,0,0,1014.5,1029.2
83,2019-12-16T01:22:00,0.7,南,1.6,南南西,1.3,86.3,0,0,0,0,0,0,1014.4,1029.1
84,2019-12-16T01:23:00,0.7,南南西,1.6,南南西,1.5,87.1,0,0,0,0,0,0,1014.4,1029.1
85,2019-12-16T01:24:00,0.8,南南西,1.6,南南西,1.7,87.8,0,0,0,0,0,0,1014.4,1029.1
86,2019-12-16T01:25:00,0.8,南南西,1.6,南南西,1.5,87.3,0,0,0,0,0,0,1014.5,1029.2
87,2019-12-16T01:26:00,0.8,南南西,1.6,南南西,1.5,86.9,0,0,0,0,0,0,1014.4,1029.1
88,2019-12-16T01:27:00,0.8,南西,1.6,南南西,1.3,86.7,0,0,0,0,0,0,1014.4,1029.1
89,2019-12-16T01:28:00,0.8,南西,1.6,南南西,1.5,86.5,0,0,0,0,0,0,1014.5,1029.2
90,2019-12-16T01:29:00,0.8,南西,1.6,南南西,1.5,87.4,0,0,0,0,0,0,1014.4,1029.1
91,2019-12-16T01:30:00,0.8,南西,1.6,南南西,1.5,87.2,0,0,0,0,0,0,1014.5,1029.2
92,2019-12-16T01:31:00,0.8,西南西,1.4,西,1.5,87.3,0,0,0,0,0,0,1014.6,1029.3
93,2019-12-16T01:32:00,0.8,西南西,1.4,西,1.3,86.4,0,0,0,0,0,0,1014.6,1029.3
94,2019-12-16T01:33:00,0.8,西南西,1.4,西,1.5,86.7,0,0,0,0,0,0,1014.6,1029.3
95,2019-12-16T01:34:00,0.8,西南西,1.4,西,1.6,87.4,0,0,0,0,0,0,1014.6,1029.3
96,2019-12-16T01:35:00,0.7,西,1.4,西,1.6,87.3,0,0,0,0,0,0,1014.5,1029.2
97,2019-12-16T01:36:00,0.7,西,1.4,西,1.6,87,0,0,0,0,0,0,1014.6,1029.3
98,2019-12-16T01:37:00,0.6,西,1.4,西,1.5,86.5,0,0,0,0,0,0,1014.6,1029.3
99,2019-12-16T01:38:00,0.6,西,1.4,西,1.6,86.8,0,0,0,0,0,0,1014.6,1029.3
100,2019-12-16T01:39:00,0.4,西,1.3,西,1.7,87.3,0,0,0,0,0,0,1014.6,1029.3
101,2019-12-16T01:40:00,0.4,西北西,1.3,西,1.8,87.5,0,0,0,0,0,0,1014.6,1029.3
102,2019-12-16T01:41:00,0.3,西北西,1.2,西,1.7,87.5,0,0,0,0,0,0,1014.6,1029.3
103,2019-12-16T01:42:00,0.2,静穏,1,西,1.6,86.8,0,0,0,0,0,0,1014.6,1029.3
104,2019-12-16T01:43:00,0.2,静穏,0.7,西,1.4,86.2,0,0,0,0,0,0,1014.6,1029.3
105,2019-12-16T01:44:00,0.2,静穏,0.7,西,1.4,85.9,0,0,0,0,0,0,1014.6,1029.3
106,2019-12-16T01:45:00,0.2,静穏,0.7,西,1.4,86.1,0,0,0,0,0,0,1014.6,1029.3
107,2019-12-16T01:46:00,0.3,西北西,1.1,西,1.3,86.4,0,0,0,0,0,0,1014.6,1029.3
108,2019-12-16T01:47:00,0.4,西北西,1.1,西,1.3,86.6,0,0,0,0,0,0,1014.6,1029.3
109,2019-12-16T01:48:00,0.5,西北西,1.1,西,1.4,87.2,0,0,0,0,0,0,1014.6,1029.3
110,2019-12-16T01:49:00,0.6,西,1.1,西,1.3,86.9,0,0,0,0,0,0,1014.6,1029.3
111,2019-12-16T01:50:00,0.7,西,1.1,西,1.4,87.2,0,0,0,0,0,0,1014.6,1029.3
112,2019-12-16T01:51:00,0.8,西,1.1,西,1.3,86.9,0,0,0,0,0,0,1014.6,1029.3
113,2019-12-16T01:52:00,0.8,西,1.2,西,1.5,87.1,0,0,0,0,0,0,1014.5,1029.2
114,2019-12-16T01:53:00,0.9,西,1.2,西,1.5,87.4,0,0,0,0,0,0,1014.6,1029.3
115,2019-12-16T01:54:00,0.9,西,1.2,西,1.5,86.9,0,0,0,0,0,0,1014.6,1029.3
116,2019-12-16T01:55:00,0.9,西,1.2,西,1.3,86.4,0,0,0,0,0,0,1014.7,1029.4
117,2019-12-16T01:56:00,0.9,西,1.2,西,1.4,86.3,0,0,0,0,0,0,1014.7,1029.4
118,2019-12-16T01:57:00,0.8,西,1.2,西,1.4,86.9,0,0,0,0,0,0,1014.6,1029.3
119,2019-12-16T01:58:00,0.7,西南西,1.2,西,1.3,86.7,0,0,0,0,0,0,1014.6,1029.3
120,2019-12-16T01:59:00,0.6,西南西,1.2,西,1.5,87.2,0,0,0,0,0,0,1014.6,1029.3
121,2019-12-16T02:00:00,0.5,西南西,1.2,西,1.5,88.3,0,0,0,0,0,0,1014.7,1029.4
122,2019-12-16T02:01:00,0.4,西南西,1.2,西,1.5,87.8,0,0,0,0,0,0,1014.7,1029.4
123,2019-12-16T02:02:00,0.3,西南西,1.2,西,1.5,87.6,0,0,0,0,0,0,1014.7,1029.4
124,2019-12-16T02:03:00,0.2,静穏,1,西,1.6,88.1,0,0,0,0,0,0,1014.7,1029.4
125,2019-12-16T02:04:00,0.1,静穏,0.9,西,1.4,87.6,0,0,0,0,0,0,1014.7,1029.4
126,2019-12-16T02:05:00,0.1,静穏,0.4,西,1.3,87,0,0,0,0,0,0,1014.7,1029.4
127,2019-12-16T02:06:00,0,静穏,0.4,西,1.5,87.4,0,0,0,0,0,0,1014.6,1029.3
128,2019-12-16T02:07:00,0,静穏,0.5,西北西,1.5,87.8,0,0,0,0,0,0,1014.7,1029.4
129,2019-12-16T02:08:00,0.1,静穏,0.6,西,1.4,87.6,0,0,0,0,0,0,1014.7,1029.4
130,2019-12-16T02:09:00,0.1,静穏,0.6,西,1.3,87.2,0,0,0,0,0,0,1014.7,1029.4
131,2019-12-16T02:10:00,0.1,静穏,0.6,西,1.3,87,0,0,0,0,0,0,1014.6,1029.3
132,2019-12-16T02:11:00,0.1,静穏,0.6,西,1.3,87.3,0,0,0,0,0,0,1014.7,1029.4
133,2019-12-16T02:12:00,0.2,静穏,0.6,西,1.5,87.8,0,0,0,0,0,0,1014.7,1029.4
134,2019-12-16T02:13:00,0.2,静穏,0.6,西,1.4,88.1,0,0,0,0,0,0,1014.7,1029.4
135,2019-12-16T02:14:00,0.2,静穏,0.6,西,1.3,87.8,0,0,0,0,0,0,1014.7,1029.4
136,2019-12-16T02:15:00,0.2,静穏,0.6,西,1.2,87.5,0,0,0,0,0,0,1014.7,1029.4
137,2019-12-16T02:16:00,0.2,静穏,0.6,西,1.2,87.6,0,0,0,0,0,0,1014.6,1029.3
138,2019-12-16T02:17:00,0.2,静穏,0.6,西,1.3,88.1,0,0,0,0,0,0,1014.7,1029.4
139,2019-12-16T02:18:00,0.2,静穏,0.6,南東,1.2,88.4,0,0,0,0,0,0,1014.7,1029.4
140,2019-12-16T02:19:00,0.2,静穏,0.6,南東,1.3,88.6,0,0,0,0,0,0,1014.7,1029.4
141,2019-12-16T02:20:00,0.2,静穏,0.6,南東,1.2,88.8,0,0,0,0,0,0,1014.7,1029.4
142,2019-12-16T02:21:00,0.2,静穏,0.6,南東,1.3,89,0,0,0,0,0,0,1014.7,1029.4
143,2019-12-16T02:22:00,0.2,静穏,0.5,東北東,1.3,89,0,0,0,0,0,0,1014.7,1029.4
144,2019-12-16T02:23:00,0.2,静穏,0.5,東北東,1.3,89,0,0,0,0,0,0,1014.7,1029.4
145,2019-12-16T02:24:00,0.3,北東,0.6,西北西,1.2,88.7,0,0,0,0,0,0,1014.7,1029.4
146,2019-12-16T02:25:00,0.3,北,0.8,北西,1.2,88.5,0,0,0,0,0,0,1014.6,1029.3
147,2019-12-16T02:26:00,0.4,北北西,1,西北西,1.3,88.7,0,0,0,0,0,0,1014.6,1029.3
148,2019-12-16T02:27:00,0.5,北西,1.1,西北西,1.3,88.6,0,0,0,0,0,0,1014.6,1029.3
149,2019-12-16T02:28:00,0.5,北西,1.1,西北西,1.3,88.5,0,0,0,0,0,0,1014.5,1029.2
150,2019-12-16T02:29:00,0.5,西北西,1.1,西北西,1.3,88.2,0,0,0,0,0,0,1014.6,1029.3
151,2019-12-16T02:30:00,0.6,西北西,1.1,西北西,1.2,88,0,0,0,0,0,0,1014.6,1029.3
152,2019-12-16T02:31:00,0.6,西北西,1.1,西北西,1.1,87.6,0,0,0,0,0,0,1014.6,1029.3
153,2019-12-16T02:32:00,0.6,西北西,1.1,西北西,1.1,87.7,0,0,0,0,0,0,1014.6,1029.3
154,2019-12-16T02:33:00,0.6,西北西,1.1,西北西,1,87.8,0,0,0,0,0,0,1014.6,1029.3
155,2019-12-16T02:34:00,0.6,西北西,1.1,西北西,1.1,88.2,0,0,0,0,0,0,1014.6,1029.3
156,2019-12-16T02:35:00,0.5,西北西,1.1,西北西,1.1,88.6,0,0,0,0,0,0,1014.6,1029.3
157,2019-12-16T02:36:00,0.5,西北西,1.1,西北西,1,88.3,0,0,0,0,0,0,1014.5,1029.2
158,2019-12-16T02:37:00,0.4,西北西,1.1,西北西,1.2,88.5,0,0,0,0,0,0,1014.5,1029.2
159,2019-12-16T02:38:00,0.3,西北西,0.9,西北西,1.2,89.2,0,0,0,0,0,0,1014.5,1029.2
160,2019-12-16T02:39:00,0.3,北西,0.7,西北西,1.3,89.3,0,0,0,0,0,0,1014.5,1029.2
161,2019-12-16T02:40:00,0.2,静穏,0.7,西,1.2,89.1,0,0,0,0,0,0,1014.6,1029.3
162,2019-12-16T02:41:00,0.3,西北西,1,西,1,88.8,0,0,0,0,0,0,1014.6,1029.3
163,2019-12-16T02:42:00,0.3,西北西,1,西,1,88.4,0,0,0,0,0,0,1014.6,1029.3
164,2019-12-16T02:43:00,0.4,西北西,1.1,西,1,88.4,0,0,0,0,0,0,1014.5,1029.2
165,2019-12-16T02:44:00,0.4,西北西,1.1,西,0.9,88.5,0,0,0,0,0,0,1014.5,1029.2
166,2019-12-16T02:45:00,0.5,西北西,1.1,西,1,88.7,0,0,0,0,0,0,1014.5,1029.2
167,2019-12-16T02:46:00,0.5,西北西,1.1,西,1.1,89.1,0,0,0,0,0,0,1014.5,1029.2
168,2019-12-16T02:47:00,0.5,西北西,1.1,西,1.1,89.1,0,0,0,0,0,0,1014.4,1029.1
169,2019-12-16T02:48:00,0.6,西北西,1.1,西,1.1,89.2,0,0,0,0,0,0,1014.4,1029.1
170,2019-12-16T02:49:00,0.6,西北西,1.1,西,1.2,89.4,0,0,0,0,0,0,1014.4,1029.1
171,2019-12-16T02:50:00,0.6,北西,1.1,西,1.2,89.6,0,0,0,0,0,0,1014.4,1029.1
172,2019-12-16T02:51:00,0.6,北西,1.1,西,1.1,89.2,0,0,0,0,0,0,1014.5,1029.2
173,2019-12-16T02:52:00,0.6,北西,1.1,西,1,88.9,0,0,0,0,0,0,1014.5,1029.2
174,2019-12-16T02:53:00,0.6,北西,1,西北西,1.1,88.9,0,0,0,0,0,0,1014.5,1029.2
175,2019-12-16T02:54:00,0.6,北西,1,西北西,1,89,0,0,0,0,0,0,1014.4,1029.1
176,2019-12-16T02:55:00,0.6,北西,1,西北西,1.1,89.1,0,0,0,0,0,0,1014.4,1029.1
177,2019-12-16T02:56:00,0.6,北西,1,西北西,1.1,89.2,0,0,0,0,0,0,1014.4,1029.1
178,2019-12-16T02:57:00,0.6,北西,1,西北西,1.1,89.1,0,0,0,0,0,0,1014.4,1029.1
179,2019-12-16T02:58:00,0.6,北西,1,西北西,1.1,89.2,0,0,0,0,0,0,1014.4,1029.1
180,2019-12-16T02:59:00,0.6,北西,1,西北西,1.1,89.3,0,0,0,0,0,0,1014.4,1029.1
181,2019-12-16T03:00:00,0.6,北西,1,西北西,1.2,89.3,0,0,0,0,0,0,1014.4,1029.1
182,2019-12-16T03:01:00,0.6,北西,1,西北西,1.1,89.6,0,0,0,0,0,0,1014.4,1029.1
183,2019-12-16T03:02:00,0.6,北西,1,西北西,1.1,89.3,0,0,0,0,0,0,1014.4,1029.1
184,2019-12-16T03:03:00,0.6,北西,1,西北西,1.1,89.2,0,0,0,0,0,0,1014.4,1029.1
185,2019-12-16T03:04:00,0.5,北西,0.8,北西,1,89,0,0,0,0,0,0,1014.4,1029.1
186,2019-12-16T03:05:00,0.5,北西,0.9,西,0.8,88.8,0,0,0,0,0,0,1014.5,1029.3
187,2019-12-16T03:06:00,0.6,西北西,1.1,西北西,0.9,88.9,0,0,0,0,0,0,1014.5,1029.2
188,2019-12-16T03:07:00,0.6,西北西,1.2,西,0.8,89.1,0,0,0,0,0,0,1014.5,1029.3
189,2019-12-16T03:08:00,0.6,西北西,1.3,西北西,0.8,88.9,0,0,0,0,0,0,1014.4,1029.1
190,2019-12-16T03:09:00,0.7,西北西,1.4,西北西,0.8,89.1,0,0,0,0,0,0,1014.4,1029.1
191,2019-12-16T03:10:00,0.8,西北西,1.4,西北西,0.9,89.3,0,0,0,0,0,0,1014.4,1029.1
192,2019-12-16T03:11:00,0.8,西北西,1.4,西北西,1,89.5,0,0,0,0,0,0,1014.4,1029.1
193,2019-12-16T03:12:00,0.9,西,1.4,西北西,1,89.3,0,0,0,0,0,0,1014.4,1029.1
194,2019-12-16T03:13:00,0.9,西,1.4,西北西,1,89.3,0,0,0,0,0,0,1014.4,1029.1
195,2019-12-16T03:14:00,0.9,西,1.4,西北西,0.9,89.2,0,0,0,0,0,0,1014.4,1029.1
196,2019-12-16T03:15:00,0.9,西,1.4,西北西,0.9,89,0,0,0,0,0,0,1014.4,1029.1
197,2019-12-16T03:16:00,0.9,西,1.4,西北西,0.9,89.1,0,0,0,0,0,0,1014.4,1029.1
198,2019-12-16T03:17:00,0.8,西,1.4,西北西,0.9,89,0,0,0,0,0,0,1014.3,1029
199,2019-12-16T03:18:00,0.8,西,1.4,西北西,0.8,89.2,0,0,0,0,0,0,1014.4,1029.1
200,2019-12-16T03:19:00,0.7,西,1.2,西,0.7,88.9,0,0,0,0,0,0,1014.4,1029.2
201,2019-12-16T03:20:00,0.6,西北西,1.1,西,0.7,88.9,0,0,0,0,0,0,1014.4,1029.2
202,2019-12-16T03:21:00,0.5,西北西,1.1,西,0.8,89.3,0,0,0,0,0,0,1014.3,1029
203,2019-12-16T03:22:00,0.4,西北西,1.1,西,0.8,89.5,0,0,0,0,0,0,1014.3,1029
204,2019-12-16T03:23:00,0.4,西北西,1.1,西,0.8,89.6,0,0,0,0,0,0,1014.4,1029.1
205,2019-12-16T03:24:00,0.3,西北西,1,西,0.7,89.3,0,0,0,0,0,0,1014.3,1029.1
206,2019-12-16T03:25:00,0.3,西北西,0.8,西南西,0.9,89.7,0,0,0,0,0,0,1014.4,1029.1
207,2019-12-16T03:26:00,0.3,西北西,0.8,西南西,0.9,89.9,0,0,0,0,0,0,1014.3,1029
208,2019-12-16T03:27:00,0.3,西北西,0.8,西南西,1,89.7,0,0,0,0,0,0,1014.3,1029
209,2019-12-16T03:28:00,0.3,西北西,0.8,西南西,0.9,89.5,0,0,0,0,0,0,1014.3,1029
210,2019-12-16T03:29:00,0.3,西北西,0.8,西南西,0.8,89,0,0,0,0,0,0,1014.3,1029
211,2019-12-16T03:30:00,0.3,西北西,0.8,西南西,0.8,88.9,0,0,0,0,0,0,1014.3,1029
212,2019-12-16T03:31:00,0.3,北西,0.8,西南西,1,89.4,0,0,0,0,0,0,1014.2,1028.9
213,2019-12-16T03:32:00,0.4,北西,0.9,北西,1,89.4,0,0,0,0,0,0,1014.2,1028.9
214,2019-12-16T03:33:00,0.4,北西,1,西北西,0.9,89.1,0,0,0,0,0,0,1014.1,1028.8
215,2019-12-16T03:34:00,0.5,北西,1,西北西,0.9,89.1,0,0,0,0,0,0,1014.1,1028.8
216,2019-12-16T03:35:00,0.5,北西,1.1,西北西,0.7,88.7,0,0,0,0,0,0,1014.2,1029
217,2019-12-16T03:36:00,0.5,北西,1.1,西北西,0.5,88,0,0,0,0,0,0,1014.2,1029
218,2019-12-16T03:37:00,0.6,北西,1.1,西北西,0.6,88,0,0,0,0,0,0,1014.1,1028.9
219,2019-12-16T03:38:00,0.6,北西,1.1,西北西,0.7,88.5,0,0,0,0,0,0,1014.1,1028.8
220,2019-12-16T03:39:00,0.6,北西,1.1,西北西,0.6,88.6,0,0,0,0,0,0,1014.1,1028.9
221,2019-12-16T03:40:00,0.6,西北西,1.1,西北西,0.8,88.8,0,0,0,0,0,0,1014.1,1028.8
222,2019-12-16T03:41:00,0.7,西北西,1.1,西北西,0.6,89,0,0,0,0,0,0,1014.1,1028.9
223,2019-12-16T03:42:00,0.7,西北西,1.1,西北西,0.6,88.9,0,0,0,0,0,0,1014,1028.8
224,2019-12-16T03:43:00,0.7,西北西,1.1,西北西,0.6,88.7,0,0,0,0,0,0,1014.1,1028.9
225,2019-12-16T03:44:00,0.7,西北西,1.1,西北西,0.6,88.7,0,0,0,0,0,0,1014.1,1028.9
226,2019-12-16T03:45:00,0.7,西北西,1.1,西北西,0.6,88.9,0,0,0,0,0,0,1014.1,1028.9
227,2019-12-16T03:46:00,0.6,西北西,1.1,西北西,0.6,89,0,0,0,0,0,0,1014.1,1028.9
228,2019-12-16T03:47:00,0.6,西北西,1.1,西北西,0.5,89,0,0,0,0,0,0,1014.1,1028.9
229,2019-12-16T03:48:00,0.6,北西,1.1,西北西,0.5,89.3,0,0,0,0,0,0,1014.1,1028.9
230,2019-12-16T03:49:00,0.6,西北西,1.1,西北西,0.6,89.3,0,0,0,0,0,0,1014.1,1028.9
231,2019-12-16T03:50:00,0.6,北西,1.1,西北西,0.6,89.8,0,0,0,0,0,0,1014.1,1028.9
232,2019-12-16T03:51:00,0.6,北西,1.1,西北西,0.6,89.7,0,0,0,0,0,0,1014.1,1028.9
233,2019-12-16T03:52:00,0.5,北西,1.1,西北西,0.7,89.8,0,0,0,0,0,0,1014.1,1028.8
234,2019-12-16T03:53:00,0.5,北西,1.1,西北西,0.7,90.2,0,0,0,0,0,0,1014.1,1028.8
235,2019-12-16T03:54:00,0.4,北西,1,北西,0.7,90.3,0,0,0,0,0,0,1014.2,1029
236,2019-12-16T03:55:00,0.4,北西,1,北西,0.7,90.1,0,0,0,0,0,0,1014.1,1028.8
237,2019-12-16T03:56:00,0.5,北西,1,北西,0.6,90.1,0,0,0,0,0,0,1014.1,1028.9
238,2019-12-16T03:57:00,0.5,北西,1,北西,0.7,90,0,0,0,0,0,0,1014.1,1028.8
239,2019-12-16T03:58:00,0.4,北西,1,北西,0.6,90.1,0,0,0,0,0,0,1014.2,1029
240,2019-12-16T03:59:00,0.4,北西,1,北西,0.7,90,0,0,0,0,0,0,1014.2,1029
241,2019-12-16T04:00:00,0.4,北西,0.9,北西,0.6,90.1,0,0,0,0,0,0,1014.2,1029
242,2019-12-16T04:01:00,0.4,北西,0.8,北西,0.7,90.1,0,0,0,0,0,0,1014.2,1029
243,2019-12-16T04:02:00,0.4,北西,0.9,西北西,0.7,90.5,0,0,0,0,0,0,1014.2,1029
244,2019-12-16T04:03:00,0.5,北西,0.9,西北西,0.8,90.3,0,0,0,0,0,0,1014.2,1028.9
245,2019-12-16T04:04:00,0.5,北西,0.9,西北西,0.8,90.6,0,0,0,0,0,0,1014.2,1028.9
246,2019-12-16T04:05:00,0.5,北西,0.9,西北西,0.8,90.6,0,0,0,0,0,0,1014.2,1028.9
247,2019-12-16T04:06:00,0.5,北西,0.9,西北西,0.8,90.3,0,0,0,0,0,0,1014.2,1028.9
248,2019-12-16T04:07:00,0.5,北西,0.9,西北西,0.8,90.3,0,0,0,0,0,0,1014.2,1028.9
249,2019-12-16T04:08:00,0.5,北西,0.9,西北西,0.7,90,0,0,0,0,0,0,1014.2,1029
250,2019-12-16T04:09:00,0.5,北西,0.9,西北西,0.7,89.8,0,0,0,0,0,0,1014.2,1029
251,2019-12-16T04:10:00,0.5,北西,0.9,西北西,0.7,89.8,0,0,0,0,0,0,1014.2,1029
252,2019-12-16T04:11:00,0.5,北西,0.9,西北西,0.7,89.9,0,0,0,0,0,0,1014.2,1029
253,2019-12-16T04:12:00,0.4,北北西,0.8,北西,0.7,90,0,0,0,0,0,0,1014.3,1029.1
254,2019-12-16T04:13:00,0.4,北北西,0.7,北西,0.7,90.1,0,0,0,0,0,0,1014.2,1029
255,2019-12-16T04:14:00,0.3,北北西,0.7,北西,0.6,90.1,0,0,0,0,0,0,1014.2,1029
256,2019-12-16T04:15:00,0.3,北北西,0.6,北北西,0.7,90.3,0,0,0,0,0,0,1014.3,1029.1
257,2019-12-16T04:16:00,0.2,静穏,0.6,北北西,0.8,90.5,0,0,0,0,0,0,1014.2,1028.9
258,2019-12-16T04:17:00,0.2,静穏,0.6,北北西,0.8,90.7,0,0,0,0,0,0,1014.3,1029
259,2019-12-16T04:18:00,0.2,静穏,0.6,北北西,0.7,90.5,0,0,0,0,0,0,1014.2,1029
260,2019-12-16T04:19:00,0.1,静穏,0.6,北北西,0.7,90.4,0,0,0,0,0,0,1014.2,1029
261,2019-12-16T04:20:00,0.1,静穏,0.6,北北西,0.6,90.2,0,0,0,0,0,0,1014.2,1029
262,2019-12-16T04:21:00,0.1,静穏,0.9,西,0.5,89.9,0,0,0,0,0,0,1014.2,1029
263,2019-12-16T04:22:00,0.1,静穏,0.9,西,0.4,89.7,0,0,0,0,0,0,1014.2,1029
264,2019-12-16T04:23:00,0.2,静穏,0.9,西,0.5,89.7,0,0,0,0,0,0,1014.2,1029
265,2019-12-16T04:24:00,0.2,静穏,0.9,西,0.6,90,0,0,0,0,0,0,1014.2,1029
266,2019-12-16T04:25:00,0.2,静穏,0.9,西,0.6,90.4,0,0,0,0,0,0,1014.2,1029
267,2019-12-16T04:26:00,0.3,北西,0.9,西,0.5,90.5,0,0,0,0,0,0,1014.2,1029
268,2019-12-16T04:27:00,0.3,北西,0.9,西,0.4,89.9,0,0,0,0,0,0,1014.2,1029
269,2019-12-16T04:28:00,0.3,西北西,0.9,西,0.6,90.3,0,0,0,0,0,0,1014.3,1029.1
270,2019-12-16T04:29:00,0.3,西北西,0.9,西,0.6,90.8,0,0,0,0,0,0,1014.3,1029.1
271,2019-12-16T04:30:00,0.3,西北西,0.9,西,0.7,90.8,0,0,0,0,0,0,1014.3,1029.1
272,2019-12-16T04:31:00,0.3,西北西,0.7,西南西,0.7,90.6,0,0,0,0,0,0,1014.3,1029.1
273,2019-12-16T04:32:00,0.3,北西,0.7,西南西,0.6,90.6,0,0,0,0,0,0,1014.2,1029
274,2019-12-16T04:33:00,0.2,静穏,0.7,西南西,0.6,90.4,0,0,0,0,0,0,1014.3,1029.1
275,2019-12-16T04:34:00,0.2,静穏,0.7,西南西,0.5,90.2,0,0,0,0,0,0,1014.2,1029
276,2019-12-16T04:35:00,0.2,静穏,1,南南西,0.3,89.8,0,0,0,0,0,0,1014.2,1029
277,2019-12-16T04:36:00,0.3,南,1,南南西,0.3,89.5,0,0,0,0,0,0,1014.2,1029
278,2019-12-16T04:37:00,0.3,南南東,1.2,南南西,0.2,89.5,0,0,0,0,0,0,1014.2,1029
279,2019-12-16T04:38:00,0.4,南南東,1.2,南南西,0.1,89.3,0,0,0,0,0,0,1014.3,1029.1
280,2019-12-16T04:39:00,0.4,南,1.2,南南西,0,89.4,0,0,0,0,0,0,1014.3,1029.1
281,2019-12-16T04:40:00,0.5,南,1.2,南南西,0,89.6,0,0,0,0,0,0,1014.4,1029.2
282,2019-12-16T04:41:00,0.5,南南西,1.2,南南西,0.2,90.1,0,0,0,0,0,0,1014.3,1029.1
283,2019-12-16T04:42:00,0.6,南南西,1.2,南南西,0.2,90.6,0,0,0,0,0,0,1014.3,1029.1
284,2019-12-16T04:43:00,0.6,南南西,1.2,南南西,0.1,90.4,0,0,0,0,0,0,1014.3,1029.1
285,2019-12-16T04:44:00,0.7,南南西,1.2,南南西,0.1,90.4,0,0,0,0,0,0,1014.3,1029.1
286,2019-12-16T04:45:00,0.6,南南西,1.2,南南西,0.2,90.6,0,0,0,0,0,0,1014.3,1029.1
287,2019-12-16T04:46:00,0.6,南南西,1.2,南南西,0.4,91.2,0,0,0,0,0,0,1014.4,1029.2
288,2019-12-16T04:47:00,0.5,南西,1.1,南南西,0.3,91.2,0,0,0,0,0,0,1014.3,1029.1
289,2019-12-16T04:48:00,0.4,南西,1.1,南南西,0.3,91.1,0,0,0,0,0,0,1014.3,1029.1
290,2019-12-16T04:49:00,0.3,南西,0.9,南南西,0.5,91.3,0,0,0,0,0,0,1014.3,1029.1
291,2019-12-16T04:50:00,0.3,西南西,0.9,南南西,0.4,91.7,0,0,0,0,0,0,1014.3,1029.1
292,2019-12-16T04:51:00,0.2,静穏,0.9,南南西,0.4,91.5,0,0,0,0,0,0,1014.4,1029.2
293,2019-12-16T04:52:00,0.2,静穏,0.8,南,0.5,91.4,0,0,0,0,0,0,1014.3,1029.1
294,2019-12-16T04:53:00,0.2,静穏,0.9,西,0.2,91.2,0,0,0,0,0,0,1014.3,1029.1
295,2019-12-16T04:54:00,0.3,西北西,1.1,西,0.2,90.6,0,0,0,0,0,0,1014.3,1029.1
296,2019-12-16T04:55:00,0.3,西北西,1.1,西,0.2,90.5,0,0,0,0,0,0,1014.3,1029.1
297,2019-12-16T04:56:00,0.4,西北西,1.1,西,0,90.2,0,0,0,0,0,0,1014.3,1029.1
298,2019-12-16T04:57:00,0.5,西北西,1.1,西,0,89.9,0,0,0,0,0,0,1014.3,1029.1
299,2019-12-16T04:58:00,0.6,西北西,1.1,西,0.2,90.3,0,0,0,0,0,0,1014.4,1029.2
300,2019-12-16T04:59:00,0.6,西,1.1,西,0.3,90.9,0,0,0,0,0,0,1014.3,1029.1
301,2019-12-16T05:00:00,0.7,西,1.1,西,0.3,90.7,0,0,0,0,0,0,1014.4,1029.2
302,2019-12-16T05:01:00,0.8,西,1.1,西,0.3,90.8,0,0,0,0,0,0,1014.3,1029.1
303,2019-12-16T05:02:00,0.8,西,1.1,西,0.4,90.9,0,0,0,0,0,0,1014.4,1029.2
304,2019-12-16T05:03:00,0.8,西,1.1,西,0.4,90.5,0,0,0,0,0,0,1014.4,1029.2
305,2019-12-16T05:04:00,0.8,西,1.1,西,0.4,90.7,0,0,0,0,0,0,1014.4,1029.2
306,2019-12-16T05:05:00,0.8,西,1.1,西,0.3,90.3,0,0,0,0,0,0,1014.4,1029.2
307,2019-12-16T05:06:00,0.8,西,1.2,西,0.3,90.1,0,0,0,0,0,0,1014.3,1029.1
308,2019-12-16T05:07:00,0.9,西,1.5,西北西,0.3,90,0,0,0,0,0,0,1014.3,1029.1
309,2019-12-16T05:08:00,0.9,西,1.5,西北西,0.2,89.5,0,0,0,0,0,0,1014.3,1029.1
310,2019-12-16T05:09:00,0.9,西,1.5,西北西,0.2,89.4,0,0,0,0,0,0,1014.3,1029.1
311,2019-12-16T05:10:00,0.9,西,1.5,西北西,0.1,89.1,0,0,0,0,0,0,1014.3,1029.1
312,2019-12-16T05:11:00,1,西,1.5,西北西,0.2,89,0,0,0,0,0,0,1014.3,1029.1
313,2019-12-16T05:12:00,1,西,1.5,西北西,0,88.8,0,0,0,0,0,0,1014.3,1029.1
314,2019-12-16T05:13:00,1,西,1.5,西北西,0.1,89.1,0,0,0,0,0,0,1014.3,1029.1
315,2019-12-16T05:14:00,1,西,1.5,西北西,0,89.1,0,0,0,0,0,0,1014.4,1029.2
316,2019-12-16T05:15:00,1,西,1.5,西北西,0,89.1,0,0,0,0,0,0,1014.4,1029.2
317,2019-12-16T05:16:00,0.9,西,1.5,西北西,0.2,89.5,0,0,0,0,0,0,1014.4,1029.2
318,2019-12-16T05:17:00,0.7,西北西,1.5,西北西,0,89.9,0,0,0,0,0,0,1014.3,1029.1
319,2019-12-16T05:18:00,0.6,西北西,1.2,西,0.2,89.7,0,0,0,0,0,0,1014.3,1029.1
320,2019-12-16T05:19:00,0.5,西北西,1.2,西,0,89.9,0,0,0,0,0,0,1014.3,1029.1
321,2019-12-16T05:20:00,0.4,北西,1.2,西,0,89.5,0,0,0,0,0,0,1014.3,1029.1
322,2019-12-16T05:21:00,0.4,北北西,1.2,西,0.1,89.7,0,0,0,0,0,0,1014.3,1029.1
323,2019-12-16T05:22:00,0.2,静穏,1.1,西,0.2,90.5,0,0,0,0,0,0,1014.3,1029.1
324,2019-12-16T05:23:00,0.2,静穏,1.1,西,0.2,90.4,0,0,0,0,0,0,1014.4,1029.2
325,2019-12-16T05:24:00,0.1,静穏,0.9,西,0.2,90.7,0,0,0,0,0,0,1014.4,1029.2
326,2019-12-16T05:25:00,0.1,静穏,0.6,南西,0.2,90.4,0,0,0,0,0,0,1014.4,1029.2
327,2019-12-16T05:26:00,0.1,静穏,0.6,南西,0.3,90.3,0,0,0,0,0,0,1014.4,1029.2
328,2019-12-16T05:27:00,0.1,静穏,0.6,南西,0.1,90.4,0,0,0,0,0,0,1014.4,1029.2
329,2019-12-16T05:28:00,0.1,静穏,0.6,南西,-0.1,89.6,0,0,0,0,0,0,1014.4,1029.2
330,2019-12-16T05:29:00,0.1,静穏,0.6,南西,-0.1,89.3,0,0,0,0,0,0,1014.4,1029.2